Sultan Abdul Halim, Malaysia

2:31 PM +08 on April 23, 2017 (GMT +0800)
Sultan Abdul Halim

Weather History for WMKA - December, 2012

Change the Weather History Date:

Wednesday, December 12, 2012

  Actual Average Record
Temperature  
Mean Temperature 83 °F -  
Max Temperature 91 °F - - ()
Min Temperature 75 °F - - ()
Cooling Degree Days 18    
Growing Degree Days 33 (Base 50)    
Moisture  
Dew Point 77 °F    
Average Humidity 89    
Maximum Humidity 100    
Minimum Humidity 71    
Precipitation  
Precipitation 0.00 in - - ()
Sea Level Pressure  
Sea Level Pressure 29.81 in    
Wind  
Wind Speed 2 mph ()    
Max Wind Speed 6 mph    
Max Gust Speed -    
Visibility 5.6 miles    
Events Rain , Thunderstorm    
T = Trace of Precipitation, MM = Missing Value Source: Averaged Metar Reports

Daily Weather History Graph

Daily Weather History Graph

Search for Another Location

Airport or City:

Trip Planner

Search our weather history database for the weather conditions in past years. The results will help you decide how hot, cold, wet, or windy it might be!

Date:

Astronomy

Dec. 12, 2012 Rise Set
Actual Time 7:19 AM +08 7:05 PM +08
Civil Twilight 6:56 AM +08 7:27 PM +08
Nautical Twilight 6:30 AM +08 7:54 PM +08
Astronomical Twilight 6:04 AM +08 8:20 PM +08
Moon 5:54 AM +08 (12/12) 6:05 PM +08 (12/12)
Length of Visible Light 12h 31m
Length of Day
11h 46m
Waning Crescent, 2% of the Moon is Illuminated
Dec 12
Waning Crescent
Dec 13
New
Dec 20
First Quarter
Dec 28
Full
Jan 5
Last Quarter

Hourly Weather History & Observations

Time (+08) Temp. Heat Index Dew Point Humidity Pressure Visibility Wind Dir Wind Speed Gust Speed Precip Events Conditions
12:00 AM 77.0 °F - 75.2 °F 94% 29.86 in 6.2 mi Calm Calm - N/A   Mostly Cloudy
1:00 AM 77.0 °F - 75.2 °F 94% 29.86 in 6.2 mi Calm Calm - N/A   Mostly Cloudy
2:00 AM 77.0 °F - 75.2 °F 94% 29.86 in 6.2 mi NNW 1.2 mph - N/A   Mostly Cloudy
3:00 AM 77.0 °F - 75.2 °F 94% 29.83 in 6.2 mi Calm Calm - N/A   Mostly Cloudy
4:00 AM 75.2 °F - 75.2 °F 100% 29.80 in 6.2 mi East 1.2 mph - N/A   Mostly Cloudy
5:00 AM 75.2 °F - 75.2 °F 100% 29.80 in 6.2 mi SE 3.5 mph - N/A   Mostly Cloudy
6:00 AM 75.2 °F - 75.2 °F 100% 29.80 in 4.3 mi East 2.3 mph - N/A   Mostly Cloudy
7:00 AM 75.2 °F - 73.4 °F 94% 29.80 in 3.1 mi ENE 1.2 mph - N/A   Mostly Cloudy
8:00 AM 75.2 °F - 75.2 °F 100% 29.83 in 3.1 mi East 2.3 mph - N/A   Mostly Cloudy
9:00 AM 78.8 °F - 75.2 °F 89% 29.86 in 3.1 mi NE 2.3 mph - N/A   Haze
10:00 AM 80.6 °F 87.1 °F 77.0 °F 89% 29.89 in 3.7 mi SW 1.2 mph - N/A   Mostly Cloudy
11:00 AM 82.4 °F 92.4 °F 78.8 °F 89% 29.89 in 6.2 mi NNW 2.3 mph - N/A   Mostly Cloudy
12:00 PM 86.0 °F 101.9 °F 80.6 °F 84% 29.86 in 6.2 mi ENE 4.6 mph - N/A   Mostly Cloudy
1:00 PM 87.8 °F 104.9 °F 80.6 °F 79% 29.83 in 6.2 mi East 3.5 mph - N/A   Mostly Cloudy
2:00 PM 89.6 °F 108.2 °F 80.6 °F 75% 29.80 in 6.2 mi NE 3.5 mph - N/A   Mostly Cloudy
3:00 PM 91.4 °F 111.0 °F 80.6 °F 71% 29.74 in 6.2 mi East 3.5 mph - N/A   Mostly Cloudy
4:00 PM 89.6 °F 108.2 °F 80.6 °F 75% 29.74 in 6.2 mi NNW 5.8 mph - N/A   Mostly Cloudy
5:00 PM 89.6 °F 111.1 °F 82.4 °F 79% 29.71 in 6.2 mi NNW 3.5 mph - N/A   Mostly Cloudy
6:00 PM 89.6 °F 108.2 °F 80.6 °F 75% 29.71 in 6.2 mi North 4.6 mph - N/A Thunderstorm Thunderstorm
7:00 PM 80.6 °F 88.1 °F 78.8 °F 94% 29.77 in 5.0 mi NNE 3.5 mph - N/A Rain , Thunderstorm Light Thunderstorms and Rain
8:00 PM 80.6 °F 87.1 °F 77.0 °F 89% 29.80 in 6.2 mi NE 3.5 mph - N/A   Mostly Cloudy
9:00 PM 80.6 °F 87.1 °F 77.0 °F 89% 29.80 in 6.2 mi NE 3.5 mph - N/A   Mostly Cloudy
10:00 PM 80.6 °F 87.1 °F 77.0 °F 89% 29.83 in 6.2 mi ENE 3.5 mph - N/A   Mostly Cloudy
11:00 PM 80.6 °F 87.1 °F 77.0 °F 89% 29.86 in 6.2 mi ENE 3.5 mph - N/A   Mostly Cloudy